• In France
  • List of Countries
  • For 7 days
  • Water Temperature
  • Satellite Maps
  • Weather Map
  • Weather Widgets
  • user-avatar
    Login

    Hourly Weather Dubovka

    Today, 25 May, Friday

    Time Temperature Precipitation Wind Pressure Humidity
    00:00 +15°C° 0 mm 4 mps 747 mmHg 89%
    01:00 +15°C° 0 mm 4 mps 748 mmHg 89%
    02:00 +14°C° 0 mm 4 mps 748 mmHg 89%
    03:00 +13°C° 0 mm 4 mps 748 mmHg 89%
    04:00 +13°C° 0 mm 5 mps 749 mmHg 89%
    05:00 +13°C° 0 mm 6 mps 749 mmHg 89%
    06:00 +13°C° 0 mm 6 mps 750 mmHg 89%
    07:00 +14°C° 0 mm 6 mps 750 mmHg 84%
    08:00 +15°C° 0 mm 7 mps 750 mmHg 79%
    09:00 +15°C° 0 mm 7 mps 751 mmHg 74%
    10:00 +16°C° 0 mm 7 mps 751 mmHg 68%
    11:00 +17°C° 0 mm 7 mps 751 mmHg 63%
    12:00 +17°C° 0 mm 7 mps 752 mmHg 58%
    13:00 +17°C° 0 mm 7 mps 752 mmHg 56%
    14:00 +17°C° 0 mm 7 mps 752 mmHg 53%
    15:00 +17°C° 0 mm 7 mps 752 mmHg 51%
    16:00 +16°C° 0 mm 7 mps 753 mmHg 54%
    17:00 +16°C° 0 mm 6 mps 753 mmHg 57%
    18:00 +15°C° 0 mm 5 mps 753 mmHg 59%
    19:00 +14°C° 0 mm 5 mps 754 mmHg 61%
    20:00 +12°C° 0 mm 4 mps 754 mmHg 63%
    21:00 +11°C° 0 mm 4 mps 755 mmHg 65%
    22:00 +10°C° 0 mm 4 mps 756 mmHg 66%
    23:00 +9°C° 0 mm 3 mps 756 mmHg 67%

    Tomorrow, 26 May, Saturday

    Time Temperature Precipitation Wind Pressure Humidity
    00:00 +9°C° 0 mm 3 mps 757 mmHg 69%
    01:00 +8°C° 0 mm 3 mps 757 mmHg 70%
    02:00 +7°C° 0 mm 3 mps 758 mmHg 72%
    03:00 +7°C° 0 mm 3 mps 758 mmHg 74%
    04:00 +7°C° 0 mm 3 mps 759 mmHg 72%
    05:00 +7°C° 0 mm 3 mps 759 mmHg 70%
    06:00 +8°C° 0 mm 3 mps 760 mmHg 68%
    07:00 +8°C° 0 mm 4 mps 760 mmHg 61%
    08:00 +11°C° 0 mm 4 mps 760 mmHg 55%
    09:00 +12°C° 0 mm 5 mps 761 mmHg 48%
    10:00 +13°C° 0 mm 5 mps 761 mmHg 47%
    11:00 +14°C° 0 mm 4 mps 761 mmHg 46%
    12:00 +15°C° 0 mm 4 mps 761 mmHg 44%
    13:00 +15°C° 0 mm 4 mps 761 mmHg 44%
    14:00 +17°C° 0 mm 4 mps 761 mmHg 43%
    15:00 +17°C° 0 mm 3 mps 760 mmHg 43%
    16:00 +17°C° 0 mm 3 mps 760 mmHg 46%
    17:00 +17°C° 0 mm 2 mps 760 mmHg 49%
    18:00 +17°C° 0 mm 2 mps 760 mmHg 53%
    19:00 +15°C° 0 mm 1 mps 760 mmHg 56%
    20:00 +13°C° 0 mm 1 mps 760 mmHg 59%
    21:00 +11°C° 0 mm 1 mps 760 mmHg 62%
    22:00 +11°C° 0 mm 1 mps 760 mmHg 64%
    23:00 +10°C° 0 mm 1 mps 761 mmHg 66%

    Day after tomorrow, 27 May, Sunday

    Time Temperature Precipitation Wind Pressure Humidity
    00:00 +9°C° 0 mm 2 mps 761 mmHg 67%
    01:00 +8°C° 0 mm 2 mps 761 mmHg 69%
    02:00 +8°C° 0 mm 2 mps 761 mmHg 72%
    03:00 +7°C° 0 mm 2 mps 761 mmHg 74%
    04:00 +8°C° 0 mm 2 mps 761 mmHg 74%
    05:00 +9°C° 0 mm 2 mps 761 mmHg 74%
    06:00 +10°C° 0 mm 2 mps 761 mmHg 74%
    07:00 +12°C° 0 mm 2 mps 761 mmHg 68%
    08:00 +14°C° 0 mm 2 mps 760 mmHg 63%
    09:00 +16°C° 0 mm 3 mps 760 mmHg 58%
    10:00 +17°C° 0 mm 3 mps 760 mmHg 56%
    11:00 +18°C° 0 mm 3 mps 759 mmHg 53%
    12:00 +19°C° 0 mm 3 mps 759 mmHg 50%
    13:00 +19°C° 0 mm 3 mps 759 mmHg 51%
    14:00 +20°C° 0 mm 3 mps 758 mmHg 51%
    15:00 +20°C° 0 mm 4 mps 758 mmHg 51%
    16:00 +20°C° 0 mm 3 mps 757 mmHg 55%
    17:00 +19°C° 0 mm 3 mps 757 mmHg 59%
    18:00 +19°C° 0 mm 3 mps 756 mmHg 63%
    19:00 +17°C° 0 mm 3 mps 756 mmHg 67%
    20:00 +14°C° 0 mm 3 mps 755 mmHg 72%
    21:00 +12°C° 0 mm 3 mps 755 mmHg 77%
    22:00 +12°C° 0 mm 3 mps 755 mmHg 78%
    23:00 +12°C° 0 mm 3 mps 755 mmHg 78%

    28 May, Monday

    Time Temperature Precipitation Wind Pressure Humidity
    00:00 +11°C° 0 mm 3 mps 754 mmHg 78%
    01:00 +11°C° 0 mm 3 mps 754 mmHg 79%
    02:00 +11°C° 0 mm 3 mps 754 mmHg 79%
    03:00 +11°C° 0 mm 4 mps 754 mmHg 79%
    04:00 +11°C° 0 mm 3 mps 754 mmHg 80%
    05:00 +12°C° 0 mm 3 mps 754 mmHg 80%
    06:00 +12°C° 0 mm 3 mps 754 mmHg 81%
    07:00 +14°C° 0 mm 4 mps 754 mmHg 76%
    08:00 +15°C° 0 mm 4 mps 754 mmHg 72%
    09:00 +18°C° 0 mm 4 mps 755 mmHg 68%
    10:00 +17°C° 0 mm 5 mps 755 mmHg 60%
    11:00 +19°C° 0 mm 5 mps 755 mmHg 53%
    12:00 +19°C° 0 mm 6 mps 755 mmHg 45%
    13:00 +19°C° 0 mm 6 mps 756 mmHg 44%
    14:00 +19°C° 0 mm 6 mps 756 mmHg 42%
    15:00 +19°C° 0 mm 6 mps 756 mmHg 41%
    16:00 +17°C° 0 mm 5 mps 756 mmHg 46%
    17:00 +16°C° 0 mm 5 mps 756 mmHg 50%
    18:00 +17°C° 0 mm 4 mps 756 mmHg 55%
    19:00 +14°C° 0 mm 4 mps 757 mmHg 57%
    20:00 +12°C° 0 mm 3 mps 757 mmHg 60%
    21:00 +10°C° 0 mm 3 mps 758 mmHg 62%
    22:00 +9°C° 0 mm 3 mps 758 mmHg 63%
    23:00 +8°C° 0 mm 2 mps 759 mmHg 64%

    29 May, Tuesday

    Time Temperature Precipitation Wind Pressure Humidity
    00:00 +8°C° 0 mm 2 mps 759 mmHg 65%
    01:00 +7°C° 0 mm 2 mps 759 mmHg 66%
    02:00 +7°C° 0 mm 2 mps 759 mmHg 66%
    03:00 +6°C° 0 mm 2 mps 759 mmHg 67%
    04:00 +7°C° 0 mm 2 mps 760 mmHg 67%
    05:00 +8°C° 0 mm 2 mps 760 mmHg 68%
    06:00 +9°C° 0 mm 2 mps 760 mmHg 69%
    07:00 +11°C° 0 mm 3 mps 760 mmHg 63%
    08:00 +13°C° 0 mm 3 mps 760 mmHg 58%
    09:00 +15°C° 0 mm 4 mps 759 mmHg 53%
    10:00 +17°C° 0 mm 4 mps 759 mmHg 51%
    11:00 +17°C° 0 mm 5 mps 759 mmHg 50%
    12:00 +19°C° 0 mm 5 mps 758 mmHg 49%
    13:00 +20°C° 0 mm 5 mps 758 mmHg 50%
    14:00 +20°C° 0 mm 5 mps 757 mmHg 51%
    15:00 +21°C° 0 mm 5 mps 757 mmHg 52%
    16:00 +20°C° 0 mm 5 mps 756 mmHg 56%
    17:00 +20°C° 0 mm 5 mps 755 mmHg 60%
    18:00 +20°C° 0 mm 4 mps 755 mmHg 64%
    19:00 +18°C° 0 mm 4 mps 754 mmHg 68%
    20:00 +17°C° 0 mm 4 mps 754 mmHg 73%
    21:00 +14°C° 0 mm 4 mps 753 mmHg 77%
    22:00 +14°C° 0 mm 4 mps 753 mmHg 76%
    23:00 +14°C° 0 mm 5 mps 752 mmHg 76%

    30 May, Wednesday

    Time Temperature Precipitation Wind Pressure Humidity
    00:00 +13°C° 0 mm 5 mps 752 mmHg 75%
    01:00 +13°C° 0 mm 5 mps 751 mmHg 75%
    02:00 +13°C° 0 mm 5 mps 751 mmHg 74%
    03:00 +12°C° 0 mm 5 mps 750 mmHg 73%
    04:00 +12°C° 0 mm 5 mps 750 mmHg 74%
    05:00 +13°C° 0 mm 6 mps 749 mmHg 75%
    06:00 +13°C° 0 mm 6 mps 749 mmHg 76%
    07:00 +15°C° 0 mm 6 mps 748 mmHg 72%
    08:00 +16°C° 0 mm 6 mps 747 mmHg 69%
    09:00 +18°C° 0 mm 7 mps 747 mmHg 65%
    10:00 +21°C° 0 mm 7 mps 746 mmHg 61%
    11:00 +22°C° 0 mm 8 mps 746 mmHg 58%
    12:00 +23°C° 0 mm 8 mps 745 mmHg 54%
    13:00 +23°C° 0 mm 8 mps 745 mmHg 55%
    14:00 +24°C° 0 mm 8 mps 745 mmHg 55%
    15:00 +24°C° 0 mm 7 mps 744 mmHg 55%
    16:00 +23°C° 0.1 mm 7 mps 744 mmHg 58%
    17:00 +22°C° 0.1 mm 6 mps 744 mmHg 61%
    18:00 +21°C° 0.1 mm 5 mps 744 mmHg 64%
    19:00 +19°C° 0 mm 5 mps 744 mmHg 61%
    20:00 +16°C° 0 mm 5 mps 745 mmHg 58%
    21:00 +14°C° 0 mm 5 mps 745 mmHg 55%
    22:00 +12°C° 0 mm 4 mps 746 mmHg 58%
    23:00 +11°C° 0 mm 4 mps 746 mmHg 61%
    Show more